METAR Formatted Surface Weather Observation
Issued by NWS

Home | Current Version | Previous Version | Text Only | Print | Product List | Glossary On
Versions: 1 2 3 4 5 6 7 8 9 10 11 12 13 14 15 16 17 18 19 20 21 22 23 24 25 26 27 28 29 30 31 32 33 34 35 36 37 38 39 40 41 42 43 44 45 46 47 48 49 50
338
SAUS46 KPDT 181159
MTRMEH
METAR KMEH 181156Z AUTO VRB04KT 10SM OVC050 M03/M06 A2974 RMK AO2
FZRAE17 SLP098 P0001 60032 70037 I1001 I6017 T10281061 11017 21033
56014



USA.gov is the U.S. government's official web portal to all federal, state and local government web resources and services.